Regional Weather Roundup
Issued by NWS

Home | Current Version | Previous Version | Text Only | Print | Product List | Glossary Off
Versions: 1 2 3 4 5 6 7 8 9 10 11 12 13 14 15 16 17 18 19 20 21 22 23 24 25 26 27 28 29 30 31 32 33 34 35 36 37 38 39 40 41 42 43 44 45 46 47 48 49 50

508
ASUS45 KTFX 241510
RWRMT
MONTANA REGIONAL WEATHER ROUNDUP
NATIONAL WEATHER SERVICE GREAT FALLS MT
900 AM MDT SAT SEP 24 2016

NOTE: "FAIR" INDICATES FEW OR NO CLOUDS BELOW 12000 FEET WITH NO
SIGNIFICANT WEATHER AND/OR OBSTRUCTIONS TO VISIBILITY.

MTZ001>007-043-241600-
WEST OF THE DIVIDE

CITY           SKY/WX    TMP DP  RH WIND       PRES   REMARKS
KALISPELL      PTSUNNY   49  43  80 S3        30.18R
MISSOULA       PTSUNNY   50  42  74 NW10      30.22R
BUTTE          CLOUDY    45  34  65 NW12      30.17R
MULLAN PASS    FOG       37  37 100 NW7       30.24R VSB<1/4 WCI  32
ANACONDA         N/A     46  36  66 SW8       30.17R
DEER LODGE       N/A     48  36  61 NW14      30.21R
EUREKA           N/A     52  39  62 SE9       30.18R
HAMILTON         N/A     50  43  76 CALM      30.22R
LIBBY            N/A     46  41  81 CALM      30.20R
PLAINS           N/A     49  45  86 CALM      30.22R
RONAN            N/A     48  42  80 CALM      30.24R
THOMPSON FALLS   N/A     50  45  83 CALM      30.26R
$$

MTZ008-052>055-241600-
SOUTHWEST MONTANA

CITY           SKY/WX    TMP DP  RH WIND       PRES   REMARKS
BOZEMAN        CLOUDY    48  42  80 W3        30.12R
DILLON         CLOUDY    44  39  82 CALM      30.15R
W YELLOWSTONE  CLOUDY    43  36  75 N6        30.11R
ENNIS          CLOUDY    46  37  71 NW8       30.18R
THREE FORKS      N/A     52  12  20 W18       30.10R
TWIN BRIDGES     N/A     50  34  54 NW5       30.13R
$$

MTZ009-010-012-014-046-048-049-054-241600-
EAST SLOPES AND CENTRAL MONTANA

CITY           SKY/WX    TMP DP  RH WIND       PRES   REMARKS
CUT BANK       SUNNY     49  36  61 W18       30.04R
GREAT FALLS    CLOUDY    49  39  68 W12       30.05R
MALMSTROM AFB  CLOUDY    49  40  70 W8        30.05R
HELENA         CLOUDY    52  36  54 W16       30.11R
AUGUSTA          N/A     51  33  49 W25G33    30.05R
BOWMANS CRNR   PTSUNNY   47  37  70 SW8       30.07R
CHOTEAU          N/A     54  36  50 W8        30.07R
CONRAD           N/A     53  42  66 MISG      30.06R
FAIRFIELD      PTSUNNY   46  38  75 W8        30.05R
POWER          PTSUNNY   44  39  83 W5        30.05R
RAYNESFORD     PTSUNNY   51  38  60 W22G30    30.04R
$$

MTZ011-013-016-021-045-047-050-051-241600-
NORTH CENTRAL MONTANA

CITY           SKY/WX    TMP DP  RH WIND       PRES   REMARKS
HAVRE          MOSUNNY   47  42  83 SW13      29.95R
LEWISTOWN      CLOUDY    47  39  74 W9        30.01R
N BAR RANCH      N/A     48  37  66 NW21G28   29.98R
CHINOOK          N/A     48  45  87 W13       29.93R
DENTON           N/A     47  42  82 W7        29.97R
GEYSER           N/A     51  33  49 W25G33    30.05R
GRASS RANGE      N/A     51  38  63 W23G29    29.95R
JUDITH GAP     CLOUDY    46  39  76 N17G28    29.99R
ROY              N/A     50  41  70 MISG      29.93R
STANFORD         N/A     49  38  66 NW25G32   30.01S
WINIFRED         N/A     47  41  79 W8G15     29.98R
$$

MTZ017>020-022>027-061-062-241600-
NORTHEAST MONTANA

CITY           SKY/WX    TMP DP  RH WIND       PRES   REMARKS
GLASGOW        LGT RAIN  49  48  97 S6        29.88R FOG
JORDAN           N/A     50  49  96 W8        29.89R
SIDNEY         CLOUDY    56  54  93 N16       29.75F
WOLF POINT     CLOUDY    54  52  93 NW6       29.83F
PLENTYWOOD       N/A     54  54 100 NW6       29.81F
POPLAR           N/A     54  52  94 NW10      29.80F
SCOBEY           N/A     51  47  86 E6        29.87R
$$

MTZ028>42-056>058-241600-
SOUTHCENTRAL AND SOUTHEAST MONTANA

CITY           SKY/WX    TMP DP  RH WIND       PRES   REMARKS
BAKER          CLOUDY    53  51  93 NE8       29.73S FOG
BILLINGS       LGT RAIN  50  44  80 W7        29.97R
LIVINGSTON     CLOUDY    49  39  68 W8        30.07R
MILES CITY     LGT RAIN  51  50  96 N22G30    29.76F FOG
BIG TIMBER     SUNNY     52  37  58 W29G36    30.03R
EKALAKA          N/A     51  49  93 S5        29.74S
FORSYTH          N/A     52  52 100 W13G20    29.83F
HARLOWTON      PTSUNNY   48  39  71 W30G37    30.00R
LAUREL           N/A     51  41  69 CALM      29.96R
ROUNDUP          N/A     54  38  54 NW12      29.88R
$$

REGIONAL REPORTS...DAKOTAS

CITY           SKY/WX    TMP DP  RH WIND       PRES   REMARKS
WILLISTON      CLOUDY    57  54  89 N17       29.75F
MINOT          CLOUDY    64  63  96 E9        29.75R FOG
DICKINSON      FOG       57  57 100 N10       29.71F VSB 1/4
CROSBY         FOG       54  54 100 N8        29.81F VSB 1/4
WATFORD CITY   CLOUDY    55  55 100 N6        29.75S
BISMARCK       SUNNY     68  63  84 E9        29.74F
GRAND FORKS    CLOUDY    67  63  87 SE15      29.86F
FARGO          CLOUDY    70  64  81 SE22G31   29.88S
BUFFALO SD       N/A     57  56  96 NE14      29.63F
RAPID CITY     SUNNY     56  46  69 S5        29.79R
$$

REGIONAL REPORTS...WYOMING/IDAHO/WASHINGTON

CITY           SKY/WX    TMP DP  RH WIND       PRES   REMARKS
GILLETTE       LGT RAIN  47  46  97 W13       29.85S
SHERIDAN       RAIN      46  43  89 W25G33    29.90S
BUFFALO WY     LGT RAIN  44  38  79 NW28G37   29.93R
CODY           LGT RAIN  45  43  93 SW7       30.01R
YELLOWSTONE LA   N/A     36  34  92 VRB5      30.13R
IDAHO FALLS    PTSUNNY   47  42  83 SW12      30.15R
SALMON         CLOUDY    48  39  71 SE3       30.20R
BOISE          MOSUNNY   52  42  69 W8        30.25R
SPOKANE        FOG       42  41  96 S7        30.27R VSB 1/4
$$

REGIONAL REPORTS...ALBERTA

CITY           SKY/WX    TMP DP  RH WIND       PRES   REMARKS
EDMONTON       SUNNY     48  41  76 W7        30.02R
CALGARY        PTSUNNY   48  39  71 N16       30.09R
LETHBRIDGE     PTSUNNY   52  41  66 W20       30.03R
MEDICINE HAT   MOSUNNY   50  43  76 W14       29.95R
WATERTON GATE    N/A     50  34  53 SW17G25     N/A
CARDSTON         N/A     54  36  50 W14G24      N/A
MILK RIVER       N/A     54  39  58 W21         N/A
ONEFOUR          N/A     48  39  71 NW16        N/A
$$

REGIONAL REPORTS...SASKATCHEWAN

CITY           SKY/WX    TMP DP  RH WIND       PRES   REMARKS
SWIFT CURRENT  CLOUDY    45  45 100 W9        29.88S FOG
REGINA         CLOUDY    52  52 100 NW9       29.82F FOG
SASKATOON      PTSUNNY   50  50 100 NW7       29.89R
CYPRESS HILLS    N/A     45  39  81 NW8         N/A
VAL MARIE        N/A     46  45  93 NW10        N/A
ROCKGLEN         N/A     48  46  93 NW5         N/A
ASSINIBOIA       N/A     48  46  93 W8          N/A
$$




USA.gov is the U.S. government's official web portal to all federal, state and local government web resources and services.